Location: *
(46.1006°N, 1.8394°E)
Time: 11:11:04
(UTC+00:00)

Cosmos 1437 Rocket - Pass Details

Date: 20 September 2019
Orbit: 506 x 563 km, 81.2° (Epoch: 13 October)

Event Time Altitude Azimuth Distance (km) Brightness Sun altitude
Rises 20:35:52 0° 339° (NNW) 2,635 7.1 -27.1°
Reaches altitude 10° 20:38:10 10° 329° (NNW) 1,738 6.2 -27.5°
Enters shadow 20:41:13 30° 277° (W) 927 4.4 -27.9°
